Location: Newark
(15.4608°S, 41.1635°W)
Time: 23:07:48
(UTC+00:00)

Transit 4A - Pass Details

Date: 10 March 2021
Orbit: 869 x 975 km, 66.8° (Epoch: 16 April)

Event Time Altitude Azimuth Distance (km) Brightness Sun altitude
Rises 10:05:25 0° 214° (SW) 3,644 10.7 18.0°
Reaches altitude 10° 10:08:07 10° 221° (SW) 2,705 10.0 18.7°
Maximum altitude 10:13:57 40° 288° (WNW) 1,400 8.6 20.1°
Drops below altitude 10° 10:19:49 10° 355° (N) 2,710 10.4 21.5°
Sets 10:22:32 0° 3° (N) 3,651 11.1 22.2°
